H1 CPF 2 NER 2024 5 13 9 134 01 glonass127 H2 1106403 9127 37869 2024 5 13 0 0 0 2024 5 16 23 45 0 900 1 1 0 0 0 1 H9 10 0 60443 0.00000 0 3801066.739 -11496375.889 22519362.916 10 0 60443 900.00000 0 5732299.622 -9474557.995 23044965.504 10 0 60443 1800.00000 0 7835182.037 -7575686.850 23126146.071 10 0 60443 2700.00000 0 10058825.089 -5847446.962 22761240.998 10 0 60443 3600.00000 0 12344853.336 -4327779.188 21957129.900 10 0 60443 4500.00000 0 14629635.386 -3043484.417 20729118.232 10 0 60443 5400.00000 0 16846749.276 -2009298.175 19100664.783 10 0 60443 6300.00000 0 18929583.628 -1227474.274 17102957.318 10 0 60443 7200.00000 0 20813969.390 -687895.361 14774342.039 10 0 60443 8100.00000 0 22440734.843 -368706.961 12159615.022 10 0 60443 9000.00000 0 23758078.587 -237450.311 9309186.372 10 0 60443 9900.00000 0 24723661.517 -252648.484 6278130.523 10 0 60443 10800.00000 0 25306329.298 -365781.097 3125138.769 10 0 60443 11700.00000 0 25487391.233 -523565.953 -88607.409 10 0 60443 12600.00000 0 25261399.126 -670452.169 -3300621.252 10 0 60443 13500.00000 0 24636390.321 -751219.367 -6448330.983 10 0 60443 14400.00000 0 23633581.511 -713571.908 -9470311.002 10 0 60443 15300.00000 0 22286523.336 -510616.318 -12307498.642 10 0 60443 16200.00000 0 20639749.085 -103114.146 -14904370.782 10 0 60443 17100.00000 0 18746972.962 538588.531 -17210055.097 10 0 60443 18000.00000 0 16668913.253 1433040.332 -19179351.673 10 0 60443 18900.00000 0 14470832.403 2586640.437 -20773642.621 10 0 60443 19800.00000 0 12219898.620 3993118.496 -21961669.699 10 0 60443 20700.00000 0 9982481.660 5633563.096 -22720162.862 10 0 60443 21600.00000 0 7821498.357 7476999.405 -23034306.139 10 0 60443 22500.00000 0 5793921.202 9481492.519 -22898030.917 10 0 60443 23400.00000 0 3948556.081 11595730.073 -22314130.706 10 0 60443 24300.00000 0 2324183.192 13761016.773 -21294195.478 10 0 60443 25200.00000 0 948139.126 15913595.716 -19858367.769 10 0 60443 26100.00000 0 -164601.421 17987197.268 -18034926.609 10 0 60443 27000.00000 0 -1011807.689 19915706.788 -15859709.154 10 0 60443 27900.00000 0 -1603825.514 21635837.720 -13375383.243 10 0 60443 28800.00000 0 -1962871.091 23089696.804 -10630587.239 10 0 60443 29700.00000 0 -2121819.511 24227133.439 -7678956.106 10 0 60443 30600.00000 0 -2122543.049 25007775.044 -4578054.730 10 0 60443 31500.00000 0 -2013872.991 25402664.222 -1388241.132 10 0 60443 32400.00000 0 -1849274.115 25395431.094 1828516.842 10 0 60443 33300.00000 0 -1684332.339 24982954.148 5009847.442 10 0 60443 34200.00000 0 -1574162.943 24175484.814 8094179.686 10 0 60443 35100.00000 0 -1570849.114 22996233.444 11021923.704 10 0 60443 36000.00000 0 -1721018.308 21480436.656 13736604.879 10 0 60443 36900.00000 0 -2063657.210 19673947.073 16185931.316 10 0 60443 37800.00000 0 -2628255.446 17631405.575 18322776.135 10 0 60443 38700.00000 0 -3433354.080 15414072.518 20106058.099 10 0 60443 39600.00000 0 -4485557.983 13087407.489 21501506.175 10 0 60443 40500.00000 0 -5779052.131 10718496.546 22482295.945 10 0 60443 41400.00000 0 -7295641.489 8373431.326 23029547.942 10 0 60443 42300.00000 0 -9005313.194 6114745.816 23132680.164 10 0 60443 43200.00000 0 -10867298.919 3999013.933 22789609.226 10 0 60443 44100.00000 0 -12831595.431 2074704.457 22006796.681 10 0 60443 45000.00000 0 -14840882.970 380379.744 20799139.251 10 0 60443 45900.00000 0 -16832765.066 -1056688.958 19189703.832 10 0 60443 46800.00000 0 -18742240.006 -2221433.050 17209310.461 10 0 60443 47700.00000 0 -20504304.286 -3111387.188 14895968.774 10 0 60443 48600.00000 0 -22056582.083 -3736561.488 12294176.001 10 0 60443 49500.00000 0 -23341872.753 -4118789.273 9454087.101 10 0 60443 50400.00000 0 -24310510.454 -4290575.805 6430570.346 10 0 60443 51300.00000 0 -24922436.613 -4293494.391 3282164.297 10 0 60443 52200.00000 0 -25148896.742 -4176195.578 69954.597 10 0 60443 53100.00000 0 -24973687.812 -3992112.155 -3143608.540 10 0 60443 54000.00000 0 -24393900.648 -3796956.404 -6295929.355 10 0 60443 54900.00000 0 -23420122.652 -3646115.916 -9325497.774 10 0 60443 55800.00000 0 -22076089.018 -3592059.608 -12173107.423 10 0 60443 56700.00000 0 -20397794.216 -3681866.065 -14783034.798 10 0 60443 57600.00000 0 -18432098.969 -3954981.899 -17104154.279 10 0 60443 58500.00000 0 -16234890.077 -4441308.415 -19090964.674 10 0 60443 59400.00000 0 -13868870.151 -5159701.079 -20704504.820 10 0 60443 60300.00000 0 -11401070.679 -6116948.523 -21913138.128 10 0 60443 61200.00000 0 -8900194.175 -7307277.014 -22693188.825 10 0 60443 62100.00000 0 -6433898.620 -8712403.349 -23029416.136 10 0 60443 63000.00000 0 -4066139.922 -10302135.174 -22915316.296 10 0 60443 63900.00000 0 -1854685.467 -12035493.676 -22353246.225 10 0 60443 64800.00000 0 151095.934 -13862310.860 -21354366.798 10 0 60443 65700.00000 0 1912074.691 -15725232.951 -19938407.654 10 0 60443 66600.00000 0 3400755.025 -17562043.933 -18133259.438 10 0 60443 67500.00000 0 4602166.562 -19308209.613 -15974403.151 10 0 60443 68400.00000 0 5514217.959 -20899533.413 -13504189.689 10 0 60443 69300.00000 0 6147500.950 -22274810.737 -10770985.776 10 0 60443 70200.00000 0 6524556.883 -23378369.403 -7828205.143 10 0 60443 71100.00000 0 6678640.696 -24162389.185 -4733245.862 10 0 60443 72000.00000 0 6652038.386 -24588903.529 -1546356.438 10 0 60443 72900.00000 0 6494012.543 -24631400.770 1670545.811 10 0 60443 73800.00000 0 6258465.497 -24275959.604 4855080.153 10 0 60443 74700.00000 0 6001420.720 -23521873.648 7945607.748 10 0 60443 75600.00000 0 5778429.698 -22381741.596 10882413.755 10 0 60443 76500.00000 0 5642013.642 -20881021.699 13608844.242 10 0 60443 77400.00000 0 5639246.873 -19057071.365 16072377.413 10 0 60443 78300.00000 0 5809581.984 -16957713.421 18225610.508 10 0 60443 79200.00000 0 6183006.202 -14639389.353 20027145.789 10 0 60443 80100.00000 0 6778604.231 -12164976.025 21442361.129 10 0 60443 81000.00000 0 7603586.045 -9601355.225 22444052.985 10 0 60443 81900.00000 0 8652819.098 -7016834.659 23012941.721 10 0 60443 82800.00000 0 9908884.138 -4478524.499 23138031.462 10 0 60443 83700.00000 0 11342652.868 -2049774.949 22816818.769 10 0 60443 84600.00000 0 12914364.930 212222.327 22055346.627 10 0 60443 85500.00000 0 14575161.689 2258572.436 20868102.324 10 0 60444 0.00000 0 16269015.787 4050468.779 19277760.162 10 0 60444 900.00000 0 17934980.282 5560566.008 17314771.153 10 0 60444 1800.00000 0 19509664.567 6773875.674 15016807.324 10 0 60444 2700.00000 0 20929839.621 7688150.216 12428065.713 10 0 60444 3600.00000 0 22135063.577 8313735.791 9598444.591 10 0 60444 4500.00000 0 23070219.767 8672899.462 6582604.303 10 0 60444 5400.00000 0 23687860.728 8798656.860 3438928.663 10 0 60444 6300.00000 0 23950258.675 8733147.666 228405.241 10 0 60444 7200.00000 0 23831074.062 8525625.759 -2986554.727 10 0 60444 8100.00000 0 23316569.076 8230147.899 -6143334.080 10 0 60444 9000.00000 0 22406311.479 7903058.464 -9180340.888 10 0 60444 9900.00000 0 21113335.512 7600377.443 -12038227.678 10 0 60444 10800.00000 0 19463749.716 7375203.963 -14661073.064 10 0 60444 11700.00000 0 17495805.275 7275247.754 -16997500.482 10 0 60444 12600.00000 0 15258462.118 7340596.104 -19001709.638 10 0 60444 13500.00000 0 12809511.912 7601814.088 -20634398.090 10 0 60444 14400.00000 0 10213336.679 8078461.664 -21863552.696 10 0 60444 15300.00000 0 7538397.817 8778093.181 -22665093.563 10 0 60444 16200.00000 0 4854562.157 9695783.763 -23023356.496 10 0 60444 17100.00000 0 2230378.771 10814204.021 -22931403.677 10 0 60444 18000.00000 0 -269577.687 12104240.448 -22391156.217 10 0 60444 18900.00000 0 -2587184.505 13526134.995 -21413346.284 10 0 60444 19800.00000 0 -4672964.774 15031094.714 -20017290.580 10 0 60444 20700.00000 0 -6487905.737 16563301.937 -18230490.872 10 0 60444 21600.00000 0 -8004826.411 18062238.284 -16088071.064 10 0 60444 22500.00000 0 -9209239.098 19465222.545 -13632063.743 10 0 60444 23400.00000 0 -10099671.450 20710053.620 -10910562.250 10 0 60444 24300.00000 0 -10687439.105 21737645.795 -7976757.005 10 0 60444 25200.00000 0 -10995882.473 22494544.599 -4887876.914 10 0 60444 26100.00000 0 -11059103.867 22935217.271 -1704058.389 10 0 60444 27000.00000 0 -10920262.125 23024022.229 1512834.526 10 0 60444 27900.00000 0 -10629499.978 22736776.156 4700414.989 10 0 60444 28800.00000 0 -10241594.131 22061854.917 7796979.249 10 0 60444 29700.00000 0 -9813428.774 21000784.422 10742690.459 10 0 60444 30600.00000 0 -9401399.540 19568299.079 13480718.328 10 0 60444 31500.00000 0 -9058856.831 17791867.524 15958314.046 10 0 60444 32400.00000 0 -8833694.764 15710707.052 18127801.747 10 0 60444 33300.00000 0 -8766185.158 13374328.635 19947469.826 10 0 60444 34200.00000 0 -8887145.247 10840673.061 21382347.492 10 0 60444 35100.00000 0 -9216513.763 8173914.547 22404854.266 10 0 60444 36000.00000 0 -9762393.218 5442021.028 22995312.253 10 0 60444 36900.00000 0 -10520597.304 2714169.531 23142313.256 10 0 60444 37800.00000 0 -11474722.104 58120.484 22842934.949 10 0 60444 38700.00000 0 -12596738.879 -2462343.761 22102802.461 10 0 60444 39600.00000 0 -13848085.383 -4789813.329 20935993.860 10 0 60444 40500.00000 0 -15181212.620 -6875381.799 19364790.230 10 0 60444 41400.00000 0 -16541525.506 -8680427.451 17419273.284 10 0 60444 42300.00000 0 -17869639.537 -10177972.005 15136775.805 10 0 60444 43200.00000 0 -19103862.161 -11353560.562 12561192.757 10 0 60444 44100.00000 0 -20182797.458 -12205625.455 9742163.381 10 0 60444 45000.00000 0 -21047966.602 -12745317.377 6734137.352 10 0 60444 45900.00000 0 -21646334.718 -12995809.030 3595340.677 10 0 60444 46800.00000 0 -21932637.362 -12991098.478 386659.521 10 0 60444 47700.00000 0 -21871407.026 -12774360.675 -2829537.379 10 0 60444 48600.00000 0 -21438611.685 -12395915.243 -5990615.123 10 0 60444 49500.00000 0 -20622832.916 -11910895.591 -9034903.674 10 0 60444 50400.00000 0 -19425930.217 -11376718.061 -11902918.204 10 0 60444 51300.00000 0 -17863159.761 -10850459.251 -14538543.123 10 0 60444 52200.00000 0 -15962739.186 -10386254.396 -16890154.415 10 0 60444 53100.00000 0 -13764874.044 -10032829.505 -18911655.862 10 0 60444 54000.00000 0 -11320284.985 -9831274.628 -20563406.480 10 0 60444 54900.00000 0 -8688296.657 -9813155.503 -21813018.754 10 0 60444 55800.00000 0 -5934568.608 -9999046.220 -22636010.191 10 0 60444 56700.00000 0 -3128564.135 -10397547.234 -23016293.996 10 0 60444 57600.00000 0 -340864.471 -11004831.762 -22946498.422 10 0 60444 58500.00000 0 2359557.599 -11804740.433 -22428108.231 10 0 60444 59400.00000 0 4907989.080 -12769420.035 -21471425.751 10 0 60444 60300.00000 0 7246441.018 -13860478.408 -20095353.108 10 0 60444 61200.00000 0 9325822.017 -15030605.068 -18327001.112 10 0 60444 62100.00000 0 11107730.424 -16225587.101 -16201134.133 10 0 60444 63000.00000 0 12565791.448 -17386632.914 -13759463.697 10 0 60444 63900.00000 0 13686485.386 -18452903.588 -11049806.754 10 0 60444 64800.00000 0 14469435.333 -19364143.109 -8125127.206 10 0 60444 65700.00000 0 14927145.985 -20063295.196 -5042481.449 10 0 60444 66600.00000 0 15084208.561 -20498995.717 -1861890.393 10 0 60444 67500.00000 0 14976009.370 -20627835.786 1354838.577 10 0 60444 68400.00000 0 14647000.078 -20416301.115 4545315.774 10 0 60444 69300.00000 0 14148605.655 -19842307.578 7647775.608 10 0 60444 70200.00000 0 13536860.262 -18896270.428 10602262.013 10 0 60444 71100.00000 0 12869871.835 -17581664.498 13351770.787 10 0 60444 72000.00000 0 12205222.132 -15915054.001 15843328.165 10 0 60444 72900.00000 0 11597410.699 -13925592.382 18028986.830 10 0 60444 73800.00000 0 11095448.400 -11654014.108 19866722.532 10 0 60444 74700.00000 0 10740699.276 -9151160.641 21321216.638 10 0 60444 75600.00000 0 10565058.738 -6476101.094 22364512.141 10 0 60444 76500.00000 0 10589542.096 -3693923.934 22976532.921 10 0 60444 77400.00000 0 10823340.664 -873288.778 23145458.161 10 0 60444 78300.00000 0 11263383.848 1916163.422 22867946.047 10 0 60444 79200.00000 0 11894425.393 4606438.076 22149203.001 10 0 60444 80100.00000 0 12689651.041 7133747.151 21002896.820 10 0 60444 81000.00000 0 13611783.995 9440899.018 19450914.307 10 0 60444 81900.00000 0 14614644.459 11479421.394 17522966.224 10 0 60444 82800.00000 0 15645100.963 13211330.921 15256044.755 10 0 60444 83700.00000 0 16645334.730 14610476.551 12693741.174 10 0 60444 84600.00000 0 17555324.908 15663400.534 9885433.941 10 0 60444 85500.00000 0 18315452.373 16369679.938 6885360.166 10 0 60445 0.00000 0 18869113.766 16741732.661 3751586.274 10 0 60445 900.00000 0 19165236.061 16804094.113 544894.267 10 0 60445 1800.00000 0 19160583.892 16592192.418 -2672391.656 10 0 60445 2700.00000 0 18821761.161 16150672.510 -5837621.225 10 0 60445 3600.00000 0 18126818.585 15531338.014 -8889048.673 10 0 60445 4500.00000 0 17066396.052 14790797.604 -11767054.137 10 0 60445 5400.00000 0 15644347.590 13987915.689 -14415330.027 10 0 60445 6300.00000 0 13877818.854 13181176.507 -16782006.934 10 0 60445 7200.00000 0 11796770.557 12426075.202 -18820694.626 10 0 60445 8100.00000 0 9442965.377 11772648.727 -20491415.313 10 0 60445 9000.00000 0 6868459.279 11263253.805 -21761408.700 10 0 60445 9900.00000 0 4133659.966 10930688.551 -22605791.118 10 0 60445 10800.00000 0 1305034.118 10796739.468 -23008054.403 10 0 60445 11700.00000 0 -1547439.566 10871216.832 -22960393.875 10 0 60445 12600.00000 0 -4352963.450 11151520.098 -22463858.625 10 0 60445 13500.00000 0 -7042645.944 11622751.619 -21528321.455 10 0 60445 14400.00000 0 -9552142.996 12258373.011 -20172269.791 10 0 60445 15300.00000 0 -11824104.683 13021374.768 -18422422.935 10 0 60445 16200.00000 0 -13810324.310 13865907.546 -16313184.728 10 0 60445 17100.00000 0 -15473500.743 14739303.649 -13885944.268 10 0 60445 18000.00000 0 -16788541.730 15584400.786 -11188240.424 10 0 60445 18900.00000 0 -17743356.066 16342067.513 -8272808.647 10 0 60445 19800.00000 0 -18339104.629 16953821.833 -5196530.699 10 0 60445 20700.00000 0 -18589903.486 17364431.090 -2019309.730 10 0 60445 21600.00000 0 -18521995.542 17524382.926 1197105.905 10 0 60445 22500.00000 0 -18172429.429 17392123.420 4390326.138 10 0 60445 23400.00000 0 -17587304.634 16935969.084 7498526.083 10 0 60445 24300.00000 0 -16819659.378 16135613.881 10461633.073 10 0 60445 25200.00000 0 -15927091.810 14983169.889 13222471.646 10 0 60445 26100.00000 0 -14969215.194 13483699.920 15727845.753 10 0 60445 27000.00000 0 -14005053.584 11655221.607 17929539.253 10 0 60445 27900.00000 0 -13090485.923 9528183.979 19785217.792 10 0 60445 28800.00000 0 -12275843.643 7144438.869 21259217.270 10 0 60445 29700.00000 0 -11603759.860 4555749.570 22323206.336 10 0 60445 30600.00000 0 -11107357.516 1821897.295 22956712.563 10 0 60445 31500.00000 0 -10808849.893 -991538.174 23147504.127 10 0 60445 32400.00000 0 -10718610.165 -3815634.655 22891820.996 10 0 60445 33300.00000 0 -10834747.896 -6580722.278 22194451.769 10 0 60445 34200.00000 0 -11143210.153 -9219012.807 21068654.439 10 0 60445 35100.00000 0 -11618403.958 -11667158.120 19535921.560 10 0 60445 36000.00000 0 -12224315.860 -13868634.657 17625592.522 10 0 60445 36900.00000 0 -12916084.194 -15775857.023 15374318.032 10 0 60445 37800.00000 0 -13641960.933 -17351934.052 12825384.359 10 0 60445 38700.00000 0 -14345583.525 -18571994.440 10027907.456 10 0 60445 39600.00000 0 -14968463.577 -19424025.784 7035909.762 10 0 60445 40500.00000 0 -15452589.262 -19909190.398 3907295.111 10 0 60445 41400.00000 0 -15743032.423 -20041602.566 702739.724 10 0 60445 42300.00000 0 -15790449.882 -19847574.206 -2515480.309 10 0 60445 43200.00000 0 -15553371.747 -19364358.517 -5684702.618 10 0 60445 44100.00000 0 -15000177.411 -18638442.728 -8743109.173 10 0 60445 45000.00000 0 -14110672.392 -17723460.885 -11630948.706 10 0 60445 45900.00000 0 -12877195.526 -16677814.594 -14291725.323 10 0 60445 46800.00000 0 -11305205.845 -15562102.831 -16673327.891 10 0 60445 47700.00000 0 -9413320.692 -14436470.936 -18729075.661 10 0 60445 48600.00000 0 -7232800.396 -13357992.893 -20418657.242 10 0 60445 49500.00000 0 -4806498.852 -12378199.967 -21708942.322 10 0 60445 50400.00000 0 -2187322.828 -11540862.624 -22574648.271 10 0 60445 51300.00000 0 563735.771 -10880121.689 -22998847.156 10 0 60445 52200.00000 0 3379911.726 -10419049.367 -22973302.302 10 0 60445 53100.00000 0 6191224.486 -10168701.907 -22498627.442 10 0 60445 54000.00000 0 8927173.765 -10127703.990 -21584265.555 10 0 60445 54900.00000 0 11519458.492 -10282381.646 -20248288.528 10 0 60445 55800.00000 0 13904604.045 -10607436.468 -18517022.790 10 0 60445 56700.00000 0 16026387.137 -11067130.362 -16424509.816 10 0 60445 57600.00000 0 17837956.892 -11616928.072 -14011813.976 10 0 60445 58500.00000 0 19303564.134 -12205525.123 -11326193.324 10 0 60445 59400.00000 0 20399828.246 -12777172.661 -8420151.723 10 0 60445 60300.00000 0 21116491.160 -13274198.453 -5350392.836 10 0 60445 61200.00000 0 21456630.075 -13639615.601 -2176698.341 10 0 60445 62100.00000 0 21436323.769 -13819707.655 1039246.264 10 0 60445 63000.00000 0 21083790.295 -13766480.613 4235054.355 10 0 60445 63900.00000 0 20438035.917 -13439878.883 7348845.421 10 0 60445 64800.00000 0 19547075.048 -12809672.985 10320433.584 10 0 60445 65700.00000 0 18465798.223 -11856941.228 13092475.153 10 0 60445 66600.00000 0 17253578.780 -10575084.983 15611554.381 10 0 60445 67500.00000 0 15971718.813 -8970336.816 17829188.407 10 0 60445 68400.00000 0 14680840.512 -7061741.611 19702734.395 10 0 60445 69300.00000 0 13438330.329 -4880612.283 21196183.929 10 0 60445 70200.00000 0 12295940.444 -2469482.716 22280832.003 10 0 60445 71100.00000 0 11297644.965 119399.487 22935810.148 10 0 60445 72000.00000 0 10477837.713 2825979.737 23148475.396 10 0 60445 72900.00000 0 9859944.374 5584626.260 22914648.989 10 0 60445 73800.00000 0 9455505.250 8326593.880 22238700.863 10 0 60445 74700.00000 0 9263766.020 10982623.227 21133478.076 10 0 60445 75600.00000 0 9271793.701 13485571.278 19620077.540 10 0 60445 76500.00000 0 9455113.972 15772967.333 17727465.668 10 0 60445 77400.00000 0 9778845.028 17789390.845 15491949.894 10 0 60445 78300.00000 0 10199282.781 19488573.917 12956509.524 10 0 60445 79200.00000 0 10665873.443 20835141.529 10169995.888 10 0 60445 80100.00000 0 11123492.994 21805916.455 7186214.499 10 0 60445 81000.00000 0 11514939.431 22390732.987 4062904.494 10 0 60445 81900.00000 0 11783533.868 22592723.324 860633.259 10 0 60445 82800.00000 0 11875720.732 22428062.142 -2358373.498 10 0 60445 83700.00000 0 11743556.189 21925177.553 -5531443.858 10 0 60445 84600.00000 0 11346977.524 21123459.412 -8596690.014 10 0 60445 85500.00000 0 10655754.492 20071517.703 -11494231.654 10 0 60446 0.00000 0 9651036.647 18825063.667 -14167386.550 10 0 60446 900.00000 0 8326426.704 17444502.354 -16563804.321 10 0 60446 1800.00000 0 6688532.116 15992340.773 -18636515.249 10 0 60446 2700.00000 0 4756966.368 14530520.380 -20344875.940 10 0 60446 3600.00000 0 2563798.327 13117790.218 -21655387.465 10 0 60446 4500.00000 0 152470.396 11807233.229 -22542369.437 10 0 60446 5400.00000 0 -2423769.974 10644052.414 -22988475.136 10 0 60446 6300.00000 0 -5103859.738 9663712.024 -22985036.601 10 0 60446 7200.00000 0 -7821246.488 8890513.330 -22532232.586 10 0 60446 8100.00000 0 -10506452.823 8336665.377 -21639076.232 10 0 60446 9000.00000 0 -13089769.942 8001889.307 -20323223.447 10 0 60446 9900.00000 0 -15503966.209 7873571.481 -18610606.903 10 0 60446 10800.00000 0 -17686896.163 7927456.655 -16534904.428 10 0 60446 11700.00000 0 -19583900.190 8128849.097 -14136854.035 10 0 60446 12600.00000 0 -21149894.515 8434267.718 -11463431.078 10 0 60446 13500.00000 0 -22351065.055 8793482.028 -8566905.773 10 0 60446 14400.00000 0 -23166096.031 9151839.879 -5503801.514 10 0 60446 15300.00000 0 -23586884.535 9452786.053 -2333776.274 10 0 60446 16200.00000 0 -23618714.341 9640463.470 881549.591 10 0 60446 17100.00000 0 -23279885.236 9662286.118 4079795.211 10 0 60446 18000.00000 0 -22600817.016 9471374.957 7199026.816 10 0 60446 18900.00000 0 -21622668.942 9028754.742 10178947.730 10 0 60446 19800.00000 0 -20395535.170 8305220.522 12962048.469 10 0 60446 20700.00000 0 -18976293.475 7282797.050 15494696.011 10 0 60446 21600.00000 0 -17426198.065 5955731.612 17728143.150 10 0 60446 22500.00000 0 -15808316.775 4330980.312 19619440.818 10 0 60446 23400.00000 0 -14184918.415 2428168.561 21132238.349 10 0 60446 24300.00000 0 -12614917.143 279027.816 22237458.909 10 0 60446 25200.00000 0 -11151477.747 -2073668.520 22913839.537 10 0 60446 26100.00000 0 -9839878.775 -4577627.225 23148327.362 10 0 60446 27000.00000 0 -8715719.738 -7172954.520 22936325.821 10 0 60446 27900.00000 0 -7803544.766 -9794395.922 22281786.788 10 0 60446 28800.00000 0 -7115938.485 -12373807.239 21197146.649 10 0 60446 29700.00000 0 -6653131.107 -14842757.872 19703106.609 10 0 60446 30600.00000 0 -6403129.459 -17135161.835 17828259.700 10 0 60446 31500.00000 0 -6342369.575 -19189830.062 15608569.346 10 0 60446 32400.00000 0 -6436865.358 -20952839.947 13086706.822 10 0 60446 33300.00000 0 -6643807.350 -22379624.480 10311257.461 10 0 60446 34200.00000 0 -6913546.760 -23436693.783 7335808.174 10 0 60446 35100.00000 0 -7191883.306 -24102916.039 4217931.465 10 0 60446 36000.00000 0 -7422561.825 -24370302.269 1018083.682 10 0 60446 36900.00000 0 -7549872.891 -24244259.511 -2201562.298 10 0 60446 37800.00000 0 -7521247.039 -23743298.986 -5378327.705 10 0 60446 38700.00000 0 -7289731.386 -22898208.859 -8450257.899 10 0 60446 39600.00000 0 -6816241.379 -21750724.125 -11357346.676 10 0 60446 40500.00000 0 -6071489.108 -20351748.118 -14042729.239 10 0 60446 41400.00000 0 -5037502.902 -18759199.847 -16453818.392 10 0 60446 42300.00000 0 -3708670.036 -17035578.130 -18543359.291 10 0 60446 43200.00000 0 -2092254.860 -15245346.204 -20270379.722 10 0 60446 44100.00000 0 -208367.229 -13452248.680 -21601015.026 10 0 60446 45000.00000 0 1910619.815 -11716675.996 -22509189.542 10 0 60446 45900.00000 0 4221180.211 -10093189.466 -22977139.746 10 0 60446 46800.00000 0 6670226.845 -8628313.036 -22995767.858 10 0 60446 47700.00000 0 9197118.205 -7358686.108 -22564818.560 10 0 60446 48600.00000 0 11735994.629 -6309655.763 -21692875.536 10 0 60446 49500.00000 0 14218344.774 -5494367.378 -20397178.561 10 0 60446 50400.00000 0 16575693.163 -4913390.715 -18703265.896 10 0 60446 51300.00000 0 18742294.717 -4554895.095 -16644450.542 10 0 60446 52200.00000 0 20657722.343 -4395363.429 -14261142.454 10 0 60446 53100.00000 0 22269238.643 -4400811.630 -11600032.062 10 0 60446 54000.00000 0 23533852.710 -4528458.376 -8713153.194 10 0 60446 54900.00000 0 24419976.977 -4728771.197 -5656845.792 10 0 60446 55800.00000 0 24908616.627 -4947799.337 -2490640.568 10 0 60446 56700.00000 0 24994044.413 -5129692.358 723911.052 10 0 60446 57600.00000 0 24683935.761 -5219296.371 3924437.849 10 0 60446 58500.00000 0 23998961.821 -5164717.509 7048956.632 10 0 60446 59400.00000 0 22971860.789 -4919744.577 10037063.579 10 0 60446 60300.00000 0 21646029.161 -4446029.651 12831086.770 10 0 60446 61200.00000 0 20073693.958 -3714936.296 15377178.887 10 0 60446 62100.00000 0 18313743.478 -2708979.502 17626330.931 10 0 60446 63000.00000 0 16429307.277 -1422798.663 19535289.714 10 0 60446 63900.00000 0 14485185.443 136375.713 21067363.981 10 0 60446 64800.00000 0 12545232.446 1948780.254 22193106.299 10 0 60446 65700.00000 0 10669801.959 3982699.527 22890859.997 10 0 60446 66600.00000 0 8913356.032 6195546.114 23147162.664 10 0 60446 67500.00000 0 7322335.051 8535396.909 22956999.869 10 0 60446 68400.00000 0 5933374.264 10942924.503 22323904.931 10 0 60446 69300.00000 0 4771938.933 13353646.674 21259902.675 10 0 60446 70200.00000 0 3851433.478 15700404.188 19785297.331 10 0 60446 71100.00000 0 3172821.240 17915967.541 17928306.942 10 0 60446 72000.00000 0 2724771.180 19935667.377 15724549.024 10 0 60446 72900.00000 0 2484326.571 21699941.613 13216384.669 10 0 60446 73800.00000 0 2418069.498 23156694.605 10452130.846 10 0 60446 74700.00000 0 2483734.411 24263370.282 7485153.324 10 0 60446 75600.00000 0 2632204.927 24988651.901 4372855.278 10 0 60446 76500.00000 0 2809811.451 25313715.561 1175579.227 10 0 60446 77400.00000 0 2960833.631 25232982.431 -2044557.637 10 0 60446 78300.00000 0 3030102.026 24754335.200 -5224872.527 10 0 60446 79200.00000 0 2965587.999 23898786.606 -8303346.720 10 0 60446 80100.00000 0 2720870.336 22699611.229 -11219850.723 10 0 60446 81000.00000 0 2257371.363 21200974.844 -13917339.339 10 0 60446 81900.00000 0 1546264.527 19456117.642 -16342991.189 10 0 60446 82800.00000 0 569968.957 17525167.282 -18449267.962 10 0 60446 83700.00000 0 -676835.870 15472674.217 -20194870.279 10 0 60446 84600.00000 0 -2186721.672 13364974.180 -21545569.154 10 0 60446 85500.00000 0 -3939572.467 11267490.524 -22474894.804 99